Regional Weather Roundup
Issued by NWS San Diego, CA

Home | Current Version | Previous Version | Text Only | Print | Product List | Glossary On
Versions: 1 2 3 4 5 6 7 8 9 10 11 12 13 14 15 16 17 18 19 20 21 22 23 24 25 26 27 28 29 30 31 32 33 34 35 36 37 38 39 40 41 42 43 44 45 46 47 48 49 50
000
ASUS46 KSGX 260011
RWRSGX

SAN DIEGO HOURLY WEATHER ROUNDUP
NATIONAL WEATHER SERVICE SAN DIEGO CA
500 PM PDT THU MAY 25 2017

NOTE: "FAIR" INDICATES FEW OR NO CLOUDS BELOW 12,000 FEET WITH NO
SIGNIFICANT WEATHER AND/OR OBSTRUCTIONS TO VISIBILITY.

CAZ042-043-060-061-PZZ750-775-260100-

GREATER SAN DIEGO AREA

CITY           SKY/WX    TMP DP  RH WIND       PRES   REMARKS
SAN DIEGO AP   PTSUNNY   66  50  56 W10       29.89S
NATIONAL CITY    N/A     67  54  62 NW2       29.88S
CHULA VISTA      N/A     67  54  64 W2        29.80S
IMPERIAL BEACH MOSUNNY   66  51  58 W12       29.89S
BROWN FIELD    PTSUNNY   65  50  58 SW10      29.87S
MIRAMAR MCAS   PTSUNNY   67  48  50 W9        29.87S
MONTGOMERY FLD PTSUNNY   66  47  50 SW10      29.87F

$$

NORTH SAN DIEGO COUNTY

CITY           SKY/WX    TMP DP  RH WIND       PRES   REMARKS
CAMP PENDLETON MOSUNNY   66  51  58 W8        29.86S
OCEANSIDE AP   CLOUDY    66  51  58 SW13      29.86S
OCEANSIDE HBR    N/A     64  54  70 SW2       29.89F
VISTA            N/A     64  52  64 W2        29.85R
CARLSBAD       CLOUDY    64  51  62 W12       29.86F
DEL MAR          N/A     67  54  62 W3        29.89F
LA JOLLA SCRIP   N/A     64  54  71 SW2       29.87F
FALLBROOK        N/A     67  54  61 S2        29.87
ESCONDIDO        N/A     66  51  57 W8        29.87S
SAN MARCOS       N/A     62  50  65 SW10      29.88S
POWAY            N/A     69  52  55 CALM      29.88S

$$

EAST SAN DIEGO COUNTY

CITY           SKY/WX    TMP DP  RH WIND       PRES   REMARKS
RAMONA         MOSUNNY   66  51  58 W10G20    29.86S
SANTEE LAKES     N/A     66  52  59 SW9       29.85S
LA MESA          N/A     65  51  60 W2        29.80S
JAMUL            N/A     64  52  65 CALM      29.86S
DESCANSO N       N/A     59  49  69 SW6       29.77S
CAMPO            N/A     65  49  56 SW17      29.82S

$$

ORANGE COUNTY AND THE LOS ANGELES BASIN

CITY           SKY/WX    TMP DP  RH WIND       PRES   REMARKS
JOHN WAYNE AP  CLOUDY    65  50  58 SW9       29.86F
LAGUNA BEACH     N/A     65  54  68 S6        29.83S
LAKE FOREST FR   N/A     61  47  60 W3        29.76F
HUNTINGTON BCH   N/A     66  55  68 W3        29.87F
LOS ALAMITOS   MOSUNNY   67  51  54 SW14      29.86
FULLERTON      MOSUNNY   68  49  50 W7        29.84F
LONG BEACH     MOSUNNY   67  46  47 SW10      29.85F
L.A. AP        MOSUNNY   65  50  58 SW13      29.86F
L.A. DOWNTOWN  SUNNY     68  50  52 VRB3      29.85F

$$

THE INLAND EMPIRE

CITY           SKY/WX    TMP DP  RH WIND       PRES   REMARKS
CORONA         SUNNY     67  50  54 W15G23    29.84S
CHINO          MOSUNNY   70  49  47 W16       29.84S
ONTARIO        MOSUNNY   69  48  47 SW17G25   29.82F
RIVERSIDE AP   SUNNY     68  50  52 W20       29.82F
MORENO VALLEY    N/A     73  56  53 W9        27.94S
MARCH ARB      SUNNY     69  49  47 W14       29.82S
HORSETHIEF CYN   N/A     70  46  42 NE5       29.80F
PERRIS           N/A     71  53  52 NW7       29.81F
FRENCH VALLEY  NOT AVBL
TEMECULA         N/A     66  53  62 SW13      29.86S

$$

SAN BERNARDINO AND RIVERSIDE COUNTY MOUNTAINS

CITY           SKY/WX    TMP DP  RH WIND       PRES   REMARKS
BIG BEAR AP    SUNNY     63  16  16 W15G21    29.93S
ANGELUS OAKS     N/A     61  45  56 CALM      29.62S
PINE COVE        N/A     57  40  52 W3        29.68S

$$

SOUTHERN DESERT INCLUDING THE COACHELLA VALLEY

CITY           SKY/WX    TMP DP  RH WIND       PRES   REMARKS
PALM SPRINGS   SUNNY     92  35  13 NW12G26   29.58F
PALM DESERT      N/A     94  40  15 NE3       28.83F
THERMAL        SUNNY     94  33  11 N21       29.53S
BLYTHE         SUNNY     99  20   6 SW16G30   29.54F
IMPERIAL AP    LGT RAIN  94  40  15 W20G31    29.56S
EL CENTRO NAS  MOSUNNY   93  31  11 W29G37    29.58F
YUMA AZ        MOSUNNY  100  18   5 S23G30    29.56F
MEXICALI       MOSUNNY   97  19   6 W26       29.56

$$

UPPER DESERT

CITY           SKY/WX    TMP DP  RH WIND       PRES   REMARKS
VICTORVILLE AP SUNNY     75  36  23 S20       29.74S
HESPERIA         N/A     67  45  44 SW13      29.78S
PALMDALE       SUNNY     72  38  29 SW25G31   29.74S
LANCASTER      SUNNY     69  43  38 SW25G38   29.75R
EDWARDS AFB    MOSUNNY   73  34  23 SW31G39   29.69S
DAGGETT        SUNNY     88  26  10 W29G38    29.61F
29 PALMS N     MOSUNNY   92   6   4 SW18      29.66S
NEEDLES        SUNNY    104  -5   2 S21G26    29.49F HX  95

$$

REGIONAL REPORTS

CITY           SKY/WX    TMP DP  RH WIND       PRES   REMARKS
SANTA BARBARA  PTSUNNY   64  52  64 S7        29.85F
SANDBERG       SUNNY     59  45  59 S14G26    29.87S
LAS VEGAS NV   MOSUNNY   97  10   4 SW21G35   29.49F
PHOENIX AZ     PTSUNNY   99  20   6 SW21G30   29.60F
TIJUANA        PTSUNNY   64  46  52 NW14      29.90S
ENSENADA NW      N/A     66  32  28 W6        29.85F

$$

OFFSHORE ISLANDS

CITY           SKY/WX    TMP DP  RH WIND       PRES   REMARKS
CATALINA ARPT  CLOUDY    56  49  77 W7        29.88F
SAN CLEMENTE I CLOUDY    62  51  67 SW6       29.89F
SAN NICOLAS IS CLOUDY    60  60 100 SW9       29.87S

$$

MARINE AND OFFSHORE BUOY REPORTS

STATION/POSITION SKY/WX   TEMP    WIND        PRES    VSBY  SWELL
                          AIR SEA DIR/SP/G                  HT/PER/DIR
                          (F)     (DEG/KT/KT) (MB)    (MI)  (FT/S/D)
TANNER BANKS               60 60  250/  6/  8 1011.2F         5/300/13
S CLEMENTE BASIN           62 63  240/  6/  8 1012.0F         3/260/12
SAN NICOLAS IS.               60                N/A           5/310/12
SO. S. ROSA ISLA           58 58  190/  2/  4 1011.1F         5/290/12
W. S. BARBARA CH           58 56  180/  2/  4 1010.9F         5/270/13
M. S. BARBARA CH           59 58  170/  2/  2 1011.8F         3/260/11
S. MONICA BASIN            61 63  220/  6/  8 1011.3F         3/190/14
S PEDRO CHANNEL               63                N/A           2/250/12
CMP PENDLETON NS              63                N/A           2/200/14
OCEANSIDE OFFSHR              64                N/A           2/190/13
TORREY PINES OTR              65                N/A           2/220/13
SAN DIEGO BAY                 69              1012.0S
POINT LOMA SOUTH              65                N/A           2/220/13

$$





USA.gov is the U.S. government's official web portal to all federal, state and local government web resources and services.